Year,Month,Day,Hour,Minute,Value (Times are PST for windgust in km/hr)
2020,10,08,00,15,1.60
2020,10,08,00,16,8.10
2020,10,08,00,17,4.80
2020,10,08,00,18,4.80
2020,10,08,00,19,1.60
2020,10,08,00,20,6.40
2020,10,08,00,21,1.60
2020,10,08,00,22,4.80
2020,10,08,01,16,3.20
2020,10,08,01,25,6.40
2020,10,08,01,26,4.80
2020,10,08,01,27,4.80
2020,10,08,01,28,3.20
2020,10,08,01,30,1.60
2020,10,08,01,31,1.60
2020,10,08,01,35,1.60
2020,10,08,01,39,8.10
2020,10,08,01,41,3.20
2020,10,08,01,42,4.80
2020,10,08,01,43,4.80
2020,10,08,01,44,8.10
2020,10,08,01,53,1.60
2020,10,08,01,54,1.60
2020,10,08,01,56,6.40
2020,10,08,01,57,6.40
2020,10,08,01,58,9.60
2020,10,08,01,59,8.10
2020,10,08,02,00,9.60
2020,10,08,02,01,9.60
2020,10,08,02,02,9.60
2020,10,08,02,03,8.10
2020,10,08,02,04,9.60
2020,10,08,02,06,6.40
2020,10,08,02,07,3.20
2020,10,08,02,08,1.60
2020,10,08,02,09,6.40
2020,10,08,02,13,4.80
2020,10,08,02,14,3.20
2020,10,08,02,15,3.20
2020,10,08,02,16,1.60
2020,10,08,02,18,8.10
2020,10,08,02,21,4.80
2020,10,08,02,22,6.40
2020,10,08,02,23,4.80
2020,10,08,02,24,9.60
2020,10,08,02,25,6.40
2020,10,08,02,26,4.80
2020,10,08,02,27,8.10
2020,10,08,02,28,4.80
2020,10,08,02,30,4.80
2020,10,08,02,31,3.20
2020,10,08,02,40,4.80
2020,10,08,02,43,8.10
2020,10,08,02,44,4.80
2020,10,08,02,45,1.60
2020,10,08,02,46,3.20
2020,10,08,02,47,3.20
2020,10,08,02,49,3.20
2020,10,08,02,58,3.20
2020,10,08,02,59,3.20
2020,10,08,03,04,3.20
2020,10,08,03,08,4.80
2020,10,08,03,17,3.20
2020,10,08,03,18,1.60
2020,10,08,03,19,3.20
2020,10,08,03,20,4.80
2020,10,08,03,21,6.40
2020,10,08,03,23,6.40
2020,10,08,03,24,6.40
2020,10,08,03,26,4.80
2020,10,08,03,27,6.40
2020,10,08,03,28,4.80
2020,10,08,03,29,8.10
2020,10,08,03,30,1.60
2020,10,08,03,32,4.80
2020,10,08,03,33,8.10
2020,10,08,03,34,4.80
2020,10,08,03,36,4.80
2020,10,08,03,37,3.20
2020,10,08,03,38,1.60
2020,10,08,03,40,4.80
2020,10,08,03,42,1.60
2020,10,08,03,43,4.80
2020,10,08,03,44,1.60
2020,10,08,03,45,4.80
2020,10,08,03,46,6.40
2020,10,08,03,47,6.40
2020,10,08,03,54,8.10
2020,10,08,03,55,1.60
2020,10,08,03,56,6.40
2020,10,08,03,57,3.20
2020,10,08,04,10,1.60
2020,10,08,04,11,6.40
2020,10,08,04,12,3.20
2020,10,08,04,15,3.20
2020,10,08,04,17,4.80
2020,10,08,04,18,6.40
2020,10,08,04,24,1.60
2020,10,08,04,25,3.20
2020,10,08,04,27,1.60
2020,10,08,04,29,6.40
2020,10,08,04,32,1.60
2020,10,08,05,47,4.80
2020,10,08,05,48,9.60
2020,10,08,05,49,4.80
2020,10,08,05,50,6.40
2020,10,08,05,51,3.20
2020,10,08,05,52,1.60
2020,10,08,05,53,3.20
2020,10,08,05,54,3.20
2020,10,08,05,55,1.60
2020,10,08,05,57,1.60
2020,10,08,05,59,3.20
2020,10,08,06,00,4.80
2020,10,08,06,01,1.60
2020,10,08,06,04,4.80
2020,10,08,06,05,8.10
2020,10,08,06,06,1.60
2020,10,08,06,07,4.80
2020,10,08,06,10,4.80
2020,10,08,06,11,4.80
2020,10,08,06,12,4.80
2020,10,08,06,14,6.40
2020,10,08,06,15,3.20
2020,10,08,06,16,3.20
2020,10,08,06,17,4.80
2020,10,08,06,18,4.80
2020,10,08,06,19,3.20
2020,10,08,06,21,9.60
2020,10,08,06,22,6.40
2020,10,08,06,23,3.20
2020,10,08,06,24,6.40
2020,10,08,06,25,6.40
2020,10,08,06,26,6.40
2020,10,08,06,27,6.40
2020,10,08,06,28,3.20
2020,10,08,06,29,3.20
2020,10,08,06,30,8.10
2020,10,08,06,31,8.10
2020,10,08,06,32,6.40
2020,10,08,06,33,3.20
2020,10,08,06,41,6.40
2020,10,08,06,42,4.80
2020,10,08,06,43,3.20
2020,10,08,06,44,9.60
2020,10,08,06,45,4.80
2020,10,08,06,46,6.40
2020,10,08,06,47,6.40
2020,10,08,06,48,9.60
2020,10,08,06,53,1.60
2020,10,08,06,54,1.60
2020,10,08,06,58,1.60
2020,10,08,07,02,1.60
2020,10,08,07,04,1.60
2020,10,08,07,05,1.60
2020,10,08,07,08,4.80
2020,10,08,07,14,8.10
2020,10,08,07,15,4.80
2020,10,08,07,16,3.20
2020,10,08,07,17,6.40
2020,10,08,07,19,6.40
2020,10,08,07,20,3.20
2020,10,08,07,21,9.60
2020,10,08,07,23,3.20
2020,10,08,07,25,9.60
2020,10,08,07,26,6.40
2020,10,08,07,27,6.40
2020,10,08,07,28,8.10
2020,10,08,07,29,4.80
2020,10,08,07,32,4.80
2020,10,08,07,33,6.40
2020,10,08,07,35,1.60
2020,10,08,07,36,8.10
2020,10,08,07,37,4.80
2020,10,08,07,38,1.60
2020,10,08,07,39,8.10
2020,10,08,07,40,6.40
2020,10,08,07,41,6.40
2020,10,08,07,44,4.80
2020,10,08,07,46,3.20
2020,10,08,07,48,6.40
2020,10,08,07,49,11.30
2020,10,08,07,50,9.60
2020,10,08,07,51,3.20
2020,10,08,07,52,6.40
2020,10,08,07,53,8.10
2020,10,08,07,54,3.20
2020,10,08,07,55,3.20
2020,10,08,07,56,8.10
2020,10,08,07,57,11.30
2020,10,08,07,58,8.10
2020,10,08,07,59,6.40
2020,10,08,08,00,6.40
2020,10,08,08,01,3.20
2020,10,08,08,02,3.20
2020,10,08,08,04,1.60
2020,10,08,08,05,4.80
2020,10,08,08,07,14.50
2020,10,08,08,08,6.40
2020,10,08,08,09,6.40
2020,10,08,08,10,8.10
2020,10,08,08,11,6.40
2020,10,08,08,12,4.80
2020,10,08,08,14,3.20
2020,10,08,08,17,4.80
2020,10,08,08,18,8.10
2020,10,08,08,19,6.40
2020,10,08,08,20,4.80
2020,10,08,08,22,1.60
2020,10,08,08,25,6.40
2020,10,08,08,26,4.80
2020,10,08,08,27,1.60
2020,10,08,08,28,4.80
2020,10,08,08,29,3.20
2020,10,08,08,30,16.10
2020,10,08,08,31,6.40
2020,10,08,08,32,6.40
2020,10,08,08,33,6.40
2020,10,08,08,34,8.10
2020,10,08,08,35,9.60
2020,10,08,08,36,4.80
2020,10,08,08,37,1.60
2020,10,08,08,38,3.20
2020,10,08,08,39,6.40
2020,10,08,08,40,11.30
2020,10,08,08,41,4.80
2020,10,08,08,42,4.80
2020,10,08,08,43,14.50
2020,10,08,08,44,8.10
2020,10,08,08,45,11.30
2020,10,08,08,46,3.20
2020,10,08,08,47,4.80
2020,10,08,08,48,8.10
2020,10,08,08,49,8.10
2020,10,08,08,50,3.20
2020,10,08,08,51,6.40
2020,10,08,08,52,16.10
2020,10,08,08,53,6.40
2020,10,08,08,54,1.60
2020,10,08,08,55,11.30
2020,10,08,08,56,11.30
2020,10,08,08,57,8.10
2020,10,08,08,58,6.40
2020,10,08,08,59,6.40
2020,10,08,09,00,6.40
2020,10,08,09,02,6.40
2020,10,08,09,03,11.30
2020,10,08,09,04,3.20
2020,10,08,09,05,8.10
2020,10,08,09,06,4.80
2020,10,08,09,07,4.80
2020,10,08,09,08,1.60
2020,10,08,09,09,8.10
2020,10,08,09,10,12.90
2020,10,08,09,11,4.80
2020,10,08,09,12,4.80
2020,10,08,09,13,8.10
2020,10,08,09,14,11.30
2020,10,08,09,15,3.20
2020,10,08,09,16,17.70
2020,10,08,09,17,6.40
2020,10,08,09,18,11.30
2020,10,08,09,19,6.40
2020,10,08,09,20,9.60
2020,10,08,09,21,8.10
2020,10,08,09,22,4.80
2020,10,08,09,23,6.40
2020,10,08,09,24,6.40
2020,10,08,09,25,11.30
2020,10,08,09,26,4.80
2020,10,08,09,27,11.30
2020,10,08,09,28,8.10
2020,10,08,09,31,9.60
2020,10,08,09,32,8.10
2020,10,08,09,33,8.10
2020,10,08,09,34,14.50
2020,10,08,09,35,14.50
2020,10,08,09,36,8.10
2020,10,08,09,37,6.40
2020,10,08,09,38,12.90
2020,10,08,09,39,8.10
2020,10,08,09,40,1.60
2020,10,08,09,41,6.40
2020,10,08,09,42,3.20
2020,10,08,09,43,6.40
2020,10,08,09,44,1.60
2020,10,08,09,45,14.50
2020,10,08,09,46,9.60
2020,10,08,09,47,6.40
2020,10,08,09,48,16.10
2020,10,08,09,49,8.10
2020,10,08,09,50,9.60
2020,10,08,09,51,8.10
2020,10,08,09,52,6.40
2020,10,08,09,53,16.10
2020,10,08,09,54,8.10
2020,10,08,09,55,6.40
2020,10,08,09,56,8.10
2020,10,08,09,57,9.60
2020,10,08,09,58,14.50
2020,10,08,09,59,11.30
2020,10,08,10,00,4.80
2020,10,08,10,02,8.10
2020,10,08,10,03,11.30
2020,10,08,10,04,12.90
2020,10,08,10,05,8.10
2020,10,08,10,06,8.10
2020,10,08,10,07,11.30
2020,10,08,10,08,8.10
2020,10,08,10,09,9.60
2020,10,08,10,10,6.40
2020,10,08,10,11,9.60
2020,10,08,10,12,8.10
2020,10,08,10,13,11.30
2020,10,08,10,14,3.20
2020,10,08,10,15,3.20
2020,10,08,10,16,11.30
2020,10,08,10,17,1.60
2020,10,08,10,18,8.10
2020,10,08,10,19,4.80
2020,10,08,10,20,3.20
2020,10,08,10,22,9.60
2020,10,08,10,24,3.20
2020,10,08,10,25,3.20
2020,10,08,10,26,3.20
2020,10,08,10,27,8.10
2020,10,08,10,28,4.80
2020,10,08,10,29,3.20
2020,10,08,10,30,6.40
2020,10,08,10,31,1.60
2020,10,08,10,33,6.40
2020,10,08,10,34,1.60
2020,10,08,10,35,3.20
2020,10,08,10,36,8.10
2020,10,08,10,37,8.10
2020,10,08,10,38,4.80
2020,10,08,10,39,8.10
2020,10,08,10,40,1.60
2020,10,08,10,41,6.40
2020,10,08,10,42,8.10
2020,10,08,10,45,9.60
2020,10,08,10,46,4.80
2020,10,08,10,52,8.10
2020,10,08,10,53,4.80
2020,10,08,10,54,1.60
2020,10,08,10,55,1.60
2020,10,08,10,56,6.40
2020,10,08,10,57,3.20
2020,10,08,10,58,4.80
2020,10,08,11,00,4.80
2020,10,08,11,01,8.10
2020,10,08,11,02,4.80
2020,10,08,11,03,6.40
2020,10,08,11,07,1.60
2020,10,08,11,08,3.20
2020,10,08,11,09,6.40
2020,10,08,11,10,8.10
2020,10,08,11,11,4.80
2020,10,08,11,12,6.40
2020,10,08,11,15,1.60
2020,10,08,11,17,4.80
2020,10,08,11,18,6.40
2020,10,08,11,19,3.20
2020,10,08,11,20,6.40
2020,10,08,11,21,1.60
2020,10,08,11,22,1.60
2020,10,08,11,24,8.10
2020,10,08,11,25,6.40
2020,10,08,11,26,6.40
2020,10,08,11,27,9.60
2020,10,08,11,28,11.30
2020,10,08,11,29,8.10
2020,10,08,11,30,6.40
2020,10,08,11,31,9.60
2020,10,08,11,32,4.80
2020,10,08,11,33,4.80
2020,10,08,11,35,1.60
2020,10,08,11,38,4.80
2020,10,08,11,39,3.20
2020,10,08,11,40,3.20
2020,10,08,11,43,3.20
2020,10,08,11,44,4.80
2020,10,08,11,47,9.60
2020,10,08,11,48,9.60
2020,10,08,11,49,4.80
2020,10,08,11,50,4.80
2020,10,08,11,51,6.40
2020,10,08,11,53,8.10
2020,10,08,11,54,9.60
2020,10,08,11,55,6.40
2020,10,08,11,56,3.20
2020,10,08,11,57,1.60
2020,10,08,11,58,1.60
2020,10,08,11,59,11.30
2020,10,08,12,00,9.60
2020,10,08,12,01,8.10
2020,10,08,12,02,11.30
2020,10,08,12,03,9.60
2020,10,08,12,04,9.60
2020,10,08,12,05,3.20
2020,10,08,12,06,11.30
2020,10,08,12,07,11.30
2020,10,08,12,08,6.40
2020,10,08,12,09,4.80
2020,10,08,12,10,9.60
2020,10,08,12,11,6.40
2020,10,08,12,12,9.60
2020,10,08,12,13,11.30
2020,10,08,12,14,11.30
2020,10,08,12,15,8.10
2020,10,08,12,16,14.50
2020,10,08,12,17,8.10
2020,10,08,12,18,6.40
2020,10,08,12,19,4.80
2020,10,08,12,20,8.10
2020,10,08,12,21,6.40
2020,10,08,12,22,4.80
2020,10,08,12,23,1.60
2020,10,08,12,24,1.60
2020,10,08,12,25,6.40
2020,10,08,12,26,17.70
2020,10,08,12,27,14.50
2020,10,08,12,28,8.10
2020,10,08,12,29,8.10
2020,10,08,12,30,16.10
2020,10,08,12,31,16.10
2020,10,08,12,32,16.10
2020,10,08,12,33,9.60
2020,10,08,12,34,8.10
2020,10,08,12,35,4.80
2020,10,08,12,36,8.10
2020,10,08,12,37,9.60
2020,10,08,12,38,11.30
2020,10,08,12,39,11.30
2020,10,08,12,40,9.60
2020,10,08,12,41,9.60
2020,10,08,12,42,8.10
2020,10,08,12,43,8.10
2020,10,08,12,44,14.50
2020,10,08,12,45,6.40
2020,10,08,12,46,9.60
2020,10,08,12,47,8.10
2020,10,08,12,48,9.60
2020,10,08,12,49,9.60
2020,10,08,12,50,14.50
2020,10,08,12,51,9.60
2020,10,08,12,52,8.10
2020,10,08,12,53,6.40
2020,10,08,12,54,6.40
2020,10,08,12,55,11.30
2020,10,08,12,56,9.60
2020,10,08,12,57,8.10
2020,10,08,12,58,6.40
2020,10,08,12,59,16.10
2020,10,08,13,00,11.30
2020,10,08,13,01,16.10
2020,10,08,13,02,8.10
2020,10,08,13,03,9.60
2020,10,08,13,04,9.60
2020,10,08,13,05,12.90
2020,10,08,13,06,6.40
2020,10,08,13,07,9.60
2020,10,08,13,08,8.10
2020,10,08,13,09,11.30
2020,10,08,13,10,9.60
2020,10,08,13,11,8.10
2020,10,08,13,12,11.30
2020,10,08,13,13,14.50
2020,10,08,13,14,11.30
2020,10,08,13,15,6.40
2020,10,08,13,16,9.60
2020,10,08,13,17,6.40
2020,10,08,13,18,3.20
2020,10,08,13,21,3.20
2020,10,08,13,26,8.10
2020,10,08,13,27,9.60
2020,10,08,13,28,8.10
2020,10,08,13,29,6.40
2020,10,08,13,30,6.40
2020,10,08,13,31,3.20
2020,10,08,13,32,4.80
2020,10,08,13,33,1.60
2020,10,08,13,34,1.60
2020,10,08,13,35,19.30
2020,10,08,13,36,8.10
2020,10,08,13,37,9.60
2020,10,08,13,38,9.60
2020,10,08,13,39,9.60
2020,10,08,13,41,14.50
2020,10,08,13,42,16.10
2020,10,08,13,43,14.50
2020,10,08,13,44,19.30
2020,10,08,13,45,6.40
2020,10,08,13,46,14.50
2020,10,08,13,47,20.90
2020,10,08,13,48,16.10
2020,10,08,13,49,16.10
2020,10,08,13,50,17.70
2020,10,08,13,51,12.90
2020,10,08,13,52,11.30
2020,10,08,13,53,14.50
2020,10,08,13,54,16.10
2020,10,08,13,55,16.10
2020,10,08,13,56,19.30
2020,10,08,13,57,16.10
2020,10,08,13,58,12.90
2020,10,08,13,59,14.50
2020,10,08,14,00,25.70
2020,10,08,14,01,22.50
2020,10,08,14,02,19.30
2020,10,08,14,03,17.70
2020,10,08,14,04,19.30
2020,10,08,14,05,16.10
2020,10,08,14,06,11.30
2020,10,08,14,07,19.30
2020,10,08,14,08,22.50
2020,10,08,14,09,17.70
2020,10,08,14,10,14.50
2020,10,08,14,11,16.10
2020,10,08,14,12,11.30
2020,10,08,14,13,9.60
2020,10,08,14,14,14.50
2020,10,08,14,15,11.30
2020,10,08,14,16,12.90
2020,10,08,14,17,17.70
2020,10,08,14,18,16.10
2020,10,08,14,19,9.60
2020,10,08,14,20,9.60
2020,10,08,14,21,8.10
2020,10,08,14,22,11.30
2020,10,08,14,23,11.30
2020,10,08,14,24,11.30
2020,10,08,14,25,22.50
2020,10,08,14,26,20.90
2020,10,08,14,27,17.70
2020,10,08,14,28,6.40
2020,10,08,14,29,6.40
2020,10,08,14,30,11.30
2020,10,08,14,31,16.10
2020,10,08,14,32,16.10
2020,10,08,14,33,25.70
2020,10,08,14,34,16.10
2020,10,08,14,35,24.20
2020,10,08,14,36,22.50
2020,10,08,14,37,11.30
2020,10,08,14,38,16.10
2020,10,08,14,39,8.10
2020,10,08,14,40,16.10
2020,10,08,14,41,16.10
2020,10,08,14,42,11.30
2020,10,08,14,43,16.10
2020,10,08,14,44,17.70
2020,10,08,14,45,11.30
2020,10,08,14,46,4.80
2020,10,08,14,47,6.40
2020,10,08,14,48,11.30
2020,10,08,14,49,16.10
2020,10,08,14,50,9.60
2020,10,08,14,51,14.50
2020,10,08,14,52,17.70
2020,10,08,14,53,11.30
2020,10,08,14,54,12.90
2020,10,08,14,55,16.10
2020,10,08,14,56,9.60
2020,10,08,14,57,14.50
2020,10,08,14,58,16.10
2020,10,08,14,59,17.70
2020,10,08,15,00,14.50
2020,10,08,15,01,22.50
2020,10,08,15,02,19.30
2020,10,08,15,03,22.50
2020,10,08,15,04,9.60
2020,10,08,15,05,6.40
2020,10,08,15,06,16.10
2020,10,08,15,07,16.10
2020,10,08,15,08,24.20
2020,10,08,15,09,11.30
2020,10,08,15,10,17.70
2020,10,08,15,11,16.10
2020,10,08,15,12,11.30
2020,10,08,15,13,19.30
2020,10,08,15,14,17.70
2020,10,08,15,15,19.30
2020,10,08,15,16,30.60
2020,10,08,15,17,22.50
2020,10,08,15,18,16.10
2020,10,08,15,19,22.50
2020,10,08,15,20,17.70
2020,10,08,15,21,17.70
2020,10,08,15,22,14.50
2020,10,08,15,23,27.40
2020,10,08,15,24,19.30
2020,10,08,15,25,19.30
2020,10,08,15,26,11.30
2020,10,08,15,27,17.70
2020,10,08,15,28,11.30
2020,10,08,15,29,16.10
2020,10,08,15,30,11.30
2020,10,08,15,31,11.30
2020,10,08,15,32,8.10
2020,10,08,15,33,1.60
2020,10,08,15,34,3.20
2020,10,08,15,35,4.80
2020,10,08,15,36,14.50
2020,10,08,15,37,14.50
2020,10,08,15,38,6.40
2020,10,08,15,39,8.10
2020,10,08,15,40,16.10
2020,10,08,15,41,19.30
2020,10,08,15,42,19.30
2020,10,08,15,43,8.10
2020,10,08,15,44,11.30
2020,10,08,15,45,8.10
2020,10,08,15,46,4.80
2020,10,08,15,47,6.40
2020,10,08,15,48,6.40
2020,10,08,15,49,17.70
2020,10,08,15,50,11.30
2020,10,08,15,51,9.60
2020,10,08,15,52,16.10
2020,10,08,15,53,8.10
2020,10,08,15,54,4.80
2020,10,08,15,55,4.80
2020,10,08,15,56,14.50
2020,10,08,15,57,14.50
2020,10,08,15,58,4.80
2020,10,08,16,00,12.90
2020,10,08,16,01,8.10
2020,10,08,16,02,9.60
2020,10,08,16,03,16.10
2020,10,08,16,04,16.10
2020,10,08,16,05,8.10
2020,10,08,16,06,6.40
2020,10,08,16,07,16.10
2020,10,08,16,08,16.10
2020,10,08,16,09,9.60
2020,10,08,16,10,14.50
2020,10,08,16,11,8.10
2020,10,08,16,12,4.80
2020,10,08,16,13,3.20
2020,10,08,16,14,4.80
2020,10,08,16,15,14.50
2020,10,08,16,16,8.10
2020,10,08,16,17,6.40
2020,10,08,16,18,6.40
2020,10,08,16,19,9.60
2020,10,08,16,20,11.30
2020,10,08,16,21,9.60
2020,10,08,16,22,11.30
2020,10,08,16,23,4.80
2020,10,08,16,24,11.30
2020,10,08,16,25,6.40
2020,10,08,16,26,6.40
2020,10,08,16,27,16.10
2020,10,08,16,28,9.60
2020,10,08,16,29,9.60
2020,10,08,16,30,9.60
2020,10,08,16,31,8.10
2020,10,08,16,32,9.60
2020,10,08,16,33,6.40
2020,10,08,16,34,4.80
2020,10,08,16,35,6.40
2020,10,08,16,36,9.60
2020,10,08,16,37,8.10
2020,10,08,16,38,6.40
2020,10,08,16,39,8.10
2020,10,08,16,40,9.60
2020,10,08,16,41,4.80
2020,10,08,16,43,1.60
2020,10,08,16,44,1.60
2020,10,08,16,45,4.80
2020,10,08,16,46,6.40
2020,10,08,16,47,8.10
2020,10,08,16,48,6.40
2020,10,08,16,49,4.80
2020,10,08,16,50,9.60
2020,10,08,16,51,3.20
2020,10,08,16,52,3.20
2020,10,08,16,53,4.80
2020,10,08,16,54,14.50
2020,10,08,16,55,4.80
2020,10,08,16,56,8.10
2020,10,08,16,57,8.10
2020,10,08,16,58,9.60
2020,10,08,16,59,9.60
2020,10,08,17,00,14.50
2020,10,08,17,01,14.50
2020,10,08,17,02,8.10
2020,10,08,17,03,6.40
2020,10,08,17,04,9.60
2020,10,08,17,05,4.80
2020,10,08,17,06,9.60
2020,10,08,17,07,6.40
2020,10,08,17,08,11.30
2020,10,08,17,09,16.10
2020,10,08,17,10,6.40
2020,10,08,17,11,3.20
2020,10,08,17,12,8.10
2020,10,08,17,13,6.40
2020,10,08,17,14,6.40
2020,10,08,17,15,1.60
2020,10,08,17,16,3.20
2020,10,08,17,18,9.60
2020,10,08,17,19,4.80
2020,10,08,17,20,6.40
2020,10,08,17,21,9.60
2020,10,08,17,22,8.10
2020,10,08,17,23,6.40
2020,10,08,17,24,6.40
2020,10,08,17,25,4.80
2020,10,08,17,26,3.20
2020,10,08,17,27,9.60
2020,10,08,17,28,8.10
2020,10,08,17,29,6.40
2020,10,08,17,30,6.40
2020,10,08,17,31,8.10
2020,10,08,17,32,9.60
2020,10,08,17,33,8.10
2020,10,08,17,34,12.90
2020,10,08,17,35,14.50
2020,10,08,17,36,8.10
2020,10,08,17,37,6.40
2020,10,08,17,38,6.40
2020,10,08,17,39,3.20
2020,10,08,17,40,8.10
2020,10,08,17,41,6.40
2020,10,08,17,42,9.60
2020,10,08,17,43,8.10
2020,10,08,17,45,1.60
2020,10,08,17,46,4.80
2020,10,08,17,47,1.60
2020,10,08,17,48,6.40
2020,10,08,17,49,6.40
2020,10,08,17,50,4.80
2020,10,08,17,51,9.60
2020,10,08,17,52,14.50
2020,10,08,17,53,6.40
2020,10,08,17,54,11.30
2020,10,08,17,55,9.60
2020,10,08,17,56,6.40
2020,10,08,17,57,4.80
2020,10,08,17,58,1.60
2020,10,08,18,01,11.30
2020,10,08,18,02,3.20
2020,10,08,18,03,3.20
2020,10,08,18,04,1.60
2020,10,08,18,05,1.60
2020,10,08,18,06,9.60
2020,10,08,18,07,3.20
2020,10,08,18,08,1.60
2020,10,08,18,09,4.80
2020,10,08,18,10,6.40
2020,10,08,18,11,9.60
2020,10,08,18,12,6.40
2020,10,08,18,13,3.20
2020,10,08,18,14,4.80
2020,10,08,18,15,4.80
2020,10,08,18,16,3.20
2020,10,08,18,23,3.20
2020,10,08,18,30,4.80
2020,10,08,18,31,1.60
2020,10,08,18,36,6.40
2020,10,08,18,37,8.10
2020,10,08,18,40,9.60
2020,10,08,18,41,11.30
2020,10,08,18,42,4.80
2020,10,08,18,43,3.20
2020,10,08,18,45,4.80
2020,10,08,18,50,1.60
2020,10,08,18,53,4.80
2020,10,08,18,57,4.80
2020,10,08,18,59,3.20
2020,10,08,19,00,1.60
2020,10,08,19,05,1.60
2020,10,08,19,06,6.40
2020,10,08,19,22,1.60
2020,10,08,19,33,1.60
2020,10,08,19,56,1.60
2020,10,08,19,57,1.60
2020,10,08,20,22,3.20
2020,10,08,20,27,3.20
2020,10,08,20,47,6.40
2020,10,08,20,48,3.20
2020,10,08,21,35,1.60
2020,10,08,21,40,1.60
2020,10,08,21,41,1.60
2020,10,08,21,58,1.60
